Regional Weather Roundup
Issued by NWS

Home | Current Version | Previous Version | Text Only | Print | Product List | Glossary Off
Versions: 1 2 3 4 5 6 7 8 9 10 11 12 13 14 15 16 17 18 19 20 21 22 23 24 25 26 27 28 29 30 31 32 33 34 35 36 37 38 39 40 41 42 43 44 45 46 47 48 49 50

000
ASUS43 KDTX 201610
RWRMI
MICHIGAN HOURLY REGIONAL WEATHER ROUNDUP
NATIONAL WEATHER SERVICE DETROIT/PONTIAC MI
1200 PM EDT SUN APR 20 2014

NOTE: "FAIR" INDICATES FEW OR NO CLOUDS BELOW 12,000 FEET WITH NO
SIGNIFICANT WEATHER AND/OR OBSTRUCTION TO VISIBILITY.

MIZ047>049-052>055-059>063-066>070-074>076-081>083-201700-
SOUTHEAST LOWER MICHIGAN

CITY           SKY/WX    TMP DP  RH WIND       PRES   REMARKS
ADRIAN         SUNNY     61  33  35 S8        30.27F
ALMA           SUNNY     57  32  37 S8        30.25F
ANN ARBOR      SUNNY     60  33  36 S8        30.26F
BAD AXE        SUNNY     57  32  38 S9        30.26F
DETROIT CITY   SUNNY     61  34  36 S7        30.28F
DETROIT        PTSUNNY   62  33  33 VRB7      30.28F
FLINT          SUNNY     64  30  27 SW7       30.26F
GROSSE ILE     SUNNY     52  36  54 S5        30.27F
HILLSDALE      MOSUNNY   63  27  25 S9        30.25F
HOWELL         MOSUNNY   62  30  30 S10       30.25F

CITY           SKY/WX    TMP DP  RH WIND       PRES   REMARKS
JACKSON        MOSUNNY   63  30  28 SW13      30.25F
LAMBERTVILLE   SUNNY     64  32  29 S3        30.27F
LANSING        MOSUNNY   62  32  32 S9        30.25F
LAPEER         NOT AVBL
MASON          MOSUNNY   62  33  33 S8        30.25F
MONROE         SUNNY     61  37  41 SE6       30.26F
MT. CLEMENS    PTSUNNY   54  37  52 VRB5      30.27F
PONTIAC        PTSUNNY   60  30  32 S7        30.26F
PORT HOPE        N/A     47  39  74 SE10      30.24F
PORT HURON     SUNNY     59  36  41 S10       30.28F
TRI CITIES     SUNNY     57  32  38 SW6       30.25F
YPSILANTI      SUNNY     64  34  32 S7        30.27F
$$
MIZ043>046-050>051-056>058-064>065-071>073-077>080-201700-
SOUTHWEST LOWER MICHIGAN

CITY           SKY/WX    TMP DP  RH WIND       PRES   REMARKS
BATTLE CREEK   MOSUNNY   63  33  32 S12       30.25F
BENTON HARBOR  MOSUNNY   64  36  35 S10       30.23F
BIG RAPIDS     SUNNY     60  32  34 S8G17     30.22F
COLDWATER      PTSUNNY   61  28  28 S9        30.25F
HOLLAND        MOSUNNY   64  35  34 SW9       30.23F
GRAND RAPIDS   PTSUNNY   62  29  28 VRB7      30.24F
KALAMAZOO      MOSUNNY   63  31  30 S12       30.25F
MARSHALL       MOSUNNY   62  31  31 S7        30.25S
MUSKEGON       PTSUNNY   62  30  29 S14       30.23F
$$
MIZ016>042-201700-
NORTHERN LOWER MICHIGAN

CITY           SKY/WX    TMP DP  RH WIND       PRES   REMARKS
ALPENA         PTSUNNY   56  29  35 S12       30.23F
BEAVER ISLAND  DRIZZLE   42  36  79 S10G18    30.15F
BELLAIRE       CLOUDY    54  29  38 S5        30.19F
CADILLAC       PTSUNNY   57  32  38 S10       30.20S
CHARLEVOIX     LGT RAIN  50  37  61 S8        30.20F
FRANKFORT      CLOUDY    55  32  41 W6        30.19S
GAYLORD        LGT RAIN  50  28  42 S8        30.19F
GRAYLING       CLOUDY    53  24  32 S8        30.21F
HARBOR SPRINGS LGT RAIN  48  41  78 CALM      30.18F
HOUGHTON LAKE  MOSUNNY   57  27  31 S10       30.22F
MANISTEE       CLOUDY    57  30  35 S5        30.20S
OSCODA         MOSUNNY   57  29  33 S13G18    30.24F
PELLSTON       LGT RAIN  46  41  82 SE7       30.18F
TRAVERSE CITY  CLOUDY    59  29  31 S6        30.17F
$$
MIZ007>008-015-201700-
EASTERN UPPER MICHIGAN

CITY           SKY/WX    TMP DP  RH WIND       PRES   REMARKS
KINROSS        CLOUDY    37  37 100 S6        30.18S
MACKINAC ISLAN MIX PCPN  41  39  94 CALM      30.17F
NEWBERRY       CLOUDY    38  36  94 S18G28    30.13S
S. S. MARIE    LGT RAIN  36  35  96 E6        30.18S FOG
$$
MIZ004>006-011>014-085-201700-
CENTRAL UPPER MICHIGAN

CITY           SKY/WX    TMP DP  RH WIND       PRES   REMARKS
MANISTIQUE     CLOUDY    37  35  94 SW8       30.14F
ESCANABA       CLOUDY    37  34  87 SW10G17   30.12S
MENOMINEE      CLOUDY    41  37  87 S7        30.13R
SAWYER-GWINN   SUNNY     48  45  87 SW12      30.06F
$$
MIZ001>003-009>011-084-201700-
WESTERN UPPER MICHIGAN

CITY           SKY/WX    TMP DP  RH WIND       PRES   REMARKS
IRON MOUNTAIN  PTSUNNY   52  45  77 S7        30.07F
HOUGHTON       SUNNY     48  38  68 W12       30.02S
COPPER HARBOR    N/A     40  35  83 N16       30.01S
IRONWOOD       SUNNY     57  43  58 W7        29.99F
$$

ABBREVIATIONS USED IN REMARKS
   TC - TEMPERATURE IN CELSIUS
  WCI - WIND CHILL INDEX
   HX - HEAT INDEX
  VSB - VISIBILITY




USA.gov is the U.S. government's official web portal to all federal, state and local government web resources and services.